Location: Boullarre
(49.1305°N, 3.0047°E)
Time: 19:47:00
(UTC+00:00)

Cosmos 1726 Rocket - Pass Details

Date: 03 February 2023
Orbit: 602 x 627 km, 82.5° (Epoch: 25 March)

Event Time Altitude Azimuth Distance (km) Brightness Sun altitude
Rises 17:22:34 0° 359° (N) 2,869 6.8 -6.2°
Reaches altitude 10° 17:25:04 10° 11° (N) 1,959 5.9 -6.5°
Maximum altitude 17:28:47 27° 70° (ENE) 1,164 4.4 -7.1°
Drops below altitude 10° 17:32:28 10° 130° (SE) 1,948 5.8 -7.7°
Sets 17:34:57 0° 142° (SE) 2,848 6.7 -8.1°
